RH
65 67 67 68 71 72 71 73 77 85 82 73 64 66 67 68 73 80 85 86 85 86 89 92 92 93 89 62 43 46 72 66 39 26 26 26 18 17 19 20 20 16 14 13 15 14 22
69 68 69 69 68 69 69 72 78 79 83 82 79 69 64 66 69 71 80 84 86 87 89 90 92 94 89 77 26 40 41 36 26 23 20 22 17 14 21 20 24 18 17 17 16 15 25
68 68 70 75 76 74 72 78 81 81 81 80 81 80 76 64 65 69 76 82 85 86 86 89 90 83 85 67 29 37 27 27 23 19 19 17 16 22 22 25 21 20 22 18 16 15 32
67 69 69 74 74 77 77 78 79 80 79 81 80 82 82 78 74 73 76 79 82 83 82 86 92 87 85 35 34 30 27 27 21 17 16 16 18 23 27 22 22 24 23 28 18 31 37
66 66 67 72 74 75 78 79 79 79 79 80 82 83 84 85 81 78 77 77 78 78 81 85 97 90 81 35 36 29 24 23 23 19 18 13 22 27 25 31 34 31 32 25 20 21 42
66 67 70 73 75 76 77 77 79 80 81 82 83 85 84 84 84 81 82 78 73 76 77 68 66 79 56 30 23 22 20 17 25 22 23 24 27 31 31 34 42 35 28 43 33 27 40
69 71 71 75 77 77 72 74 76 78 80 81 81 82 86 83 84 82 82 67 66 92 81 71 58 43 27 23 19 21 19 18 24 25 31 29 36 38 31 26 22 21 21 24 27 25 33
72 74 74 74 74 74 72 75 78 80 80 80 80 82 85 84 85 83 87 82 62 55 74 47 51 46 39 34 34 23 15 24 32 33 28 32 36 26 22 21 22 22 23 22 19 23 27
79 78 76 76 74 74 74 76 79 80 81 81 82 82 85 83 84 90 82 69 48 48 74 46 37 28 23 19 28 27 17 19 33 34 28 33 29 22 22 24 24 22 23 22 26 24 20
79 81 80 77 76 79 80 80 80 81 81 82 84 84 84 81 90 77 74 56 64 58 95 42 20 20 17 17 26 17 20 20 33 33 29 31 23 23 24 26 21 24 17 18 21 30 37
79 80 81 81 83 84 84 84 83 83 82 83 84 85 85 82 92 85 58 54 52 75 62 20 15 12 14 20 22 22 17 23 31 32 30 33 30 28 27 23 20 22 22 30 30 35 35
79 80 81 83 83 83 85 85 86 85 84 84 85 85 85 86 94 77 62 60 84 95 91 23 24 27 27 20 22 21 21 21 20 28 27 27 20 21 22 20 19 17 26 29 32 35 53
79 80 81 82 83 84 84 85 87 87 86 85 85 84 83 64 79 68 77 86 95 90 14 12 29 26 30 32 25 25 29 29 32 36 38 27 24 19 18 25 21 22 29 47 52 59 60
79 80 81 80 81 82 83 85 87 88 88 87 86 86 84 68 66 62 88 97 99 36 31 16 16 27 37 30 32 31 31 35 26 28 37 38 41 23 19 22 25 24 28 58 57 76 56
78 80 81 79 81 82 83 84 87 88 89 86 85 94 93 77 75 83 99 98 65 45 22 19 16 22 24 33 33 32 33 34 29 24 35 39 34 20 16 17 18 24 34 26 43 64 70
77 78 81 79 81 83 84 84 86 88 89 88 97 97 89 71 72 90 98 82 64 42 27 26 28 24 24 25 35 39 38 28 29 21 22 34 40 23 20 17 20 22 24 41 49 74 77
78 78 80 80 81 82 82 85 85 87 88 88 99 99 77 70 89 97 97 83 56 41 37 43 34 27 24 30 27 26 37 27 24 23 21 24 33 35 25 25 23 29 28 38 41 56 71
78 79 80 82 80 82 82 84 84 86 87 94 97 100 74 70 99 96 90 72 59 39 39 42 39 36 37 33 32 30 54 45 40 33 28 25 38 42 31 25 19 22 25 30 68 58 59
79 80 82 82 81 82 82 82 83 86 87 97 98 98 84 71 97 96 73 71 62 61 47 42 42 36 35 36 40 62 61 52 55 59 48 28 33 44 37 26 23 24 24 26 36 54 58
80 82 82 82 82 82 83 84 86 86 86 97 99 100 99 96 68 73 76 74 75 54 60 46 40 38 38 43 34 59 64 52 62 62 73 58 30 35 44 36 33 38 32 26 30 66 59
82 82 82 83 84 84 84 85 84 86 85 97 100 98 88 97 96 78 65 61 68 72 50 47 47 45 43 48 41 50 58 64 53 67 68 64 49 31 26 27 28 29 29 31 29 34 48
83 84 85 85 85 86 88 89 83 85 88 99 100 99 89 72 78 82 73 70 63 54 50 51 46 40 41 45 39 43 62 76 76 76 77 65 61 48 48 26 26 30 31 29 26 29 35
85 86 86 86 84 83 82 82 82 83 87 98 98 94 73 77 82 94 82 72 64 58 50 42 41 43 46 43 44 67 68 73 82 75 86 88 80 55 51 47 40 53 38 28 29 24 24
86 86 84 83 82 83 83 82 82 83 84 95 99 95 97 96 83 86 70 66 64 57 58 44 40 45 35 43 74 78 81 81 81 85 80 93 94 78 77 66 73 37 27 26 28 24 21
84 84 83 82 82 83 83 83 83 83 82 96 98 99 98 98 82 69 72 65 59 55 56 50 43 36 32 53 74 76 95 89 83 78 86 82 97 97 80 62 56 46 29 29 31 29 24
83 86 86 86 86 85 84 84 82 83 82 93 97 96 98 98 95 55 65 61 67 66 64 58 42 42 46 58 80 83 90 78 72 74 68 88 90 99 97 73 76 54 34 25 30 44 26
90 88 85 87 88 88 87 86 87 83 82 90 94 90 97 100 87 65 63 64 52 58 64 54 57 61 54 83 87 88 87 64 80 86 98 98 99 98 95 96 74 40 29 30 50 51 33
90 88 88 89 88 87 88 88 87 85 81 89 89 89 93 98 90 72 63 59 52 55 69 63 69 67 82 86 87 91 95 80 66 61 81 89 95 99 99 94 85 54 37 38 44 38 32
89 88 90 90 89 87 85 85 86 86 86 84 98 88 89 98 97 75 67 62 48 42 54 60 56 63 76 80 82 86 87 81 55 63 67 92 77 90 87 90 68 49 56 60 51 47 42
Wind_Speed
11 14 14 14 15 15 15 15 12 12 12 11 15 15 16 17 17 14 14 15 17 17 16 16 17 16 10 5 11 5 8 6 4 4 5 9 8 8 7 7 9 4 5 7 7 9 4
14 13 13 13 14 16 16 15 13 10 11 11 12 13 15 16 17 18 16 16 17 18 17 15 15 14 2 11 7 7 7 6 7 6 7 11 9 8 5 8 6 6 7 6 9 10 4
16 15 15 15 14 14 15 13 13 12 12 11 11 12 12 15 17 17 18 17 17 18 18 15 14 6 8 21 6 2 6 5 6 7 10 11 9 3 7 9 8 14 7 7 11 8 4
17 17 16 16 15 14 14 13 13 12 12 12 12 11 12 13 13 14 16 19 20 20 20 16 10 4 11 10 10 14 18 9 11 11 14 10 6 4 3 7 9 8 7 5 11 9 1
19 18 17 17 16 15 14 14 15 14 12 11 12 11 11 12 13 14 16 20 25 23 19 13 4 5 12 9 6 14 14 12 10 11 7 7 3 3 7 4 6 5 8 8 9 5 5
19 19 19 18 17 17 16 16 15 14 13 12 10 11 11 12 12 13 17 23 27 14 9 7 6 4 9 6 7 6 9 9 9 6 3 5 2 4 4 1 7 8 4 4 1 6 3
20 21 22 21 20 19 20 19 17 15 14 12 11 10 10 11 13 12 10 9 3 1 5 10 11 8 11 10 10 5 9 8 10 6 9 5 4 8 10 13 17 13 12 6 4 6 8
21 23 23 23 21 21 22 21 19 16 15 13 11 9 9 10 11 10 4 5 7 5 11 13 19 23 24 16 13 14 11 9 11 12 7 7 15 14 15 18 17 16 10 7 6 1 4
21 23 23 22 23 22 22 21 19 17 16 14 12 9 8 10 11 5 9 13 12 12 6 15 19 16 19 13 21 21 11 15 9 9 12 13 12 18 19 18 16 15 7 5 2 5 10
22 22 22 23 23 22 21 20 18 17 16 14 12 9 8 8 4 4 6 6 8 5 6 8 10 10 12 13 10 26 12 14 7 16 15 13 18 20 17 18 12 10 6 9 5 1 5
22 22 21 22 22 21 19 19 19 18 16 15 13 10 8 9 8 4 4 12 17 3 7 8 7 9 11 19 10 14 25 8 19 16 10 15 7 12 17 12 6 11 7 1 2 3 2
22 22 22 22 21 20 19 19 19 18 18 15 14 11 10 3 4 7 13 14 5 4 14 8 6 7 8 19 9 3 14 14 6 15 17 15 14 15 13 9 8 9 4 2 3 1 4
23 24 23 22 21 19 20 19 18 18 18 16 15 14 10 5 6 5 7 4 2 9 5 7 4 10 7 9 18 14 8 12 13 15 17 16 22 15 12 7 7 6 2 1 3 3 7
24 24 23 23 22 21 20 19 18 18 17 17 17 14 9 7 6 6 4 2 10 10 18 2 2 1 10 9 10 15 16 12 16 13 5 14 15 19 12 14 9 10 8 7 5 3 4
26 26 25 24 23 22 21 20 19 18 18 18 16 6 5 8 6 2 3 10 12 6 14 16 17 14 12 8 6 13 17 16 13 19 16 11 18 6 16 9 12 10 6 8 4 3 3
28 27 26 24 24 23 21 21 20 18 19 19 5 6 8 12 8 4 5 19 22 23 14 11 9 7 13 9 7 10 8 8 17 20 19 6 7 19 15 10 10 10 4 2 1 4 4
28 28 27 25 25 24 22 22 21 20 20 21 7 5 9 14 5 4 14 19 22 15 13 16 16 14 15 11 9 8 11 11 9 14 20 18 14 12 11 13 15 4 7 3 5 6 4
30 29 28 27 27 25 24 24 23 22 22 17 5 7 11 14 8 6 24 13 9 12 18 18 8 12 14 17 15 11 5 6 14 11 17 18 4 14 22 11 11 9 13 10 6 6 4
30 30 30 28 28 27 26 25 25 24 27 9 6 5 10 13 14 18 17 30 24 21 13 6 15 9 8 17 10 5 2 5 10 13 10 11 15 14 12 12 9 19 13 10 5 5 7
31 30 29 29 29 28 27 27 26 27 29 14 6 7 5 14 13 26 23 26 26 9 24 21 17 16 19 18 14 10 3 3 11 14 24 14 14 16 20 5 5 6 7 9 10 5 5
31 31 30 29 29 28 28 28 30 30 30 15 7 7 7 15 25 19 19 7 26 19 16 17 15 24 21 10 15 11 3 6 7 12 16 6 11 21 18 14 12 14 21 19 17 14 11
31 30 29 28 27 27 25 23 25 24 27 15 7 7 7 7 18 22 19 29 28 20 17 20 19 17 13 19 21 13 4 4 1 9 12 11 13 6 7 19 20 15 16 22 16 6 14
30 29 27 26 25 25 26 27 28 27 24 10 5 4 7 13 16 17 29 34 30 16 16 23 17 18 20 23 8 5 4 9 10 4 6 13 11 7 16 3 5 12 18 15 9 15 12
28 27 27 27 27 28 28 29 29 29 27 7 3 5 8 6 18 24 28 27 27 19 20 15 24 16 25 6 4 7 6 5 6 7 11 4 17 5 5 5 9 16 6 13 10 13 12
27 28 29 30 30 30 30 30 31 31 30 13 3 4 6 10 17 21 25 21 25 16 21 21 23 9 7 9 8 4 3 2 7 8 13 6 4 7 4 12 5 12 7 12 11 12 7
29 29 30 30 31 32 32 33 33 33 30 14 7 6 1 5 12 26 22 22 14 16 17 18 18 9 4 4 5 7 5 3 4 1 5 10 1 3 6 8 17 3 15 8 1 8 4
28 27 28 29 29 31 32 33 34 35 33 15 6 12 3 1 6 18 16 20 19 12 12 14 9 7 4 3 3 6 6 6 5 3 6 4 4 3 11 5 8 7 9 1 5 6 6
26 26 27 28 29 28 29 31 34 35 35 21 9 14 7 1 4 7 9 8 15 14 13 5 3 7 2 5 5 4 5 5 3 7 8 9 9 7 5 4 6 15 7 12 7 6 10
19 18 18 17 23 23 27 29 30 35 35 30 5 11 5 2 4 6 10 6 8 13 11 7 7 5 7 5 4 5 3 6 15 9 3 4 8 9 10 6 8 13 7 12 15 11 12
Wind_Direction
318 321 314 307 302 303 304 301 315 327 312 306 306 310 315 318 321 320 323 323 318 315 312 313 319 326 347 298 254 182 160 170 184 167 222 243 245 243 252 285 317 225 249 287 316 320 127
307 303 295 296 298 298 298 305 303 298 311 311 307 301 307 314 317 318 318 315 315 310 307 310 314 325 219 261 250 163 187 155 228 190 243 242 249 252 284 289 320 296 294 318 302 283 124
304 302 300 293 288 288 294 298 297 295 295 304 308 306 300 307 313 315 313 307 307 305 303 301 305 304 247 243 257 193 264 225 215 210 235 255 255 5 334 318 328 311 322 305 276 241 100
293 290 286 287 291 285 283 288 293 295 296 295 302 311 308 304 303 307 307 306 300 297 294 289 288 277 253 257 251 262 265 258 216 227 244 267 337 1 317 289 312 298 307 274 284 122 231
295 292 290 288 284 283 284 276 281 286 290 294 290 296 302 299 299 305 305 300 293 291 282 263 261 200 262 284 221 240 240 227 214 238 252 279 319 238 299 281 306 261 248 258 263 195 138
290 289 290 287 283 280 280 278 275 273 277 282 290 290 300 304 303 306 309 302 285 285 248 227 242 275 261 249 227 201 217 244 213 202 238 246 288 223 306 188 241 258 232 274 293 101 132
294 294 291 289 287 283 282 279 275 274 269 271 280 290 294 309 314 308 333 330 16 36 211 215 196 240 301 304 297 161 194 220 229 189 201 220 193 231 238 230 241 261 280 278 218 196 165
295 293 289 287 285 283 281 279 274 271 271 267 271 282 285 304 312 307 319 266 252 92 292 246 246 245 262 274 283 291 163 192 207 221 179 231 232 228 241 253 257 262 270 269 317 202 190
290 291 287 285 283 280 276 274 273 269 266 261 255 259 268 297 303 298 223 242 292 332 278 278 240 237 229 220 241 257 179 203 204 218 204 211 233 219 235 250 257 271 257 285 250 190 267
289 286 284 282 279 274 271 270 267 264 262 256 245 239 255 288 303 244 253 257 284 201 285 257 232 234 212 201 254 228 237 189 221 220 224 233 234 245 248 240 242 267 259 247 250 234 222
292 288 286 282 274 270 268 264 260 258 254 252 241 219 221 222 317 296 344 332 322 93 306 244 216 180 177 179 139 206 220 232 207 219 193 225 238 240 244 251 226 256 249 323 300 315 319
290 287 285 282 276 273 268 261 253 249 250 245 238 216 204 257 245 263 310 312 307 111 242 267 159 163 133 195 233 2 181 209 211 219 243 253 231 244 239 242 226 255 204 240 297 349 342
288 286 283 280 274 270 270 263 250 242 238 236 233 220 199 217 245 320 336 328 160 205 211 247 205 155 186 180 213 224 208 197 204 206 227 245 254 251 246 239 227 258 197 263 341 338 227
286 285 281 279 275 269 265 259 250 238 229 229 227 217 212 213 255 300 316 223 229 233 237 314 6 165 186 186 207 214 224 223 219 216 178 225 248 236 232 210 200 241 181 156 217 211 266
284 284 278 278 273 268 263 258 247 234 223 225 223 217 204 220 232 180 230 207 228 215 202 255 284 299 271 196 193 194 220 236 243 215 209 200 238 246 232 232 191 240 209 186 172 36 63
282 281 275 278 272 265 260 256 248 232 217 214 202 202 202 208 187 197 202 227 237 220 266 293 272 255 284 303 231 186 202 207 233 215 213 237 241 238 253 218 238 183 188 237 353 155 225
276 275 272 271 270 263 258 251 245 234 219 207 194 211 170 186 116 205 222 228 244 254 240 255 277 278 289 294 307 318 302 245 212 213 206 215 239 276 240 225 209 209 219 192 159 147 193
275 273 271 264 266 258 256 245 241 230 220 200 190 210 176 156 185 208 225 202 234 250 212 253 265 268 279 292 299 311 295 234 340 335 206 209 186 230 253 277 221 196 202 198 143 202 191
274 272 268 262 261 256 247 244 238 225 212 197 204 159 186 171 201 217 230 235 248 254 265 278 236 237 260 274 290 193 300 335 15 0 321 218 222 240 276 254 257 214 215 199 187 131 199
275 269 266 263 259 253 249 242 229 223 216 200 166 166 187 200 221 210 209 229 236 256 231 252 270 276 271 273 269 279 275 305 342 340 327 311 207 219 227 251 181 254 245 242 213 163 205
272 269 264 261 256 250 241 239 233 221 212 202 165 212 191 194 209 213 206 207 231 229 232 198 244 245 242 256 265 246 188 341 324 341 332 307 259 230 225 215 239 207 224 248 244 220 205
272 267 263 257 251 246 234 219 216 211 214 213 167 181 193 214 201 205 217 221 231 216 214 215 227 238 246 247 243 273 171 132 22 350 334 323 263 223 239 211 215 232 224 223 230 236 223
271 266 256 250 245 240 232 225 223 219 204 210 162 225 186 200 185 190 214 227 228 218 252 229 223 222 240 244 289 307 194 153 149 157 305 307 331 208 242 243 225 261 235 253 229 249 245
265 259 253 246 240 234 230 226 224 221 210 229 152 165 194 197 195 205 211 221 236 219 230 264 219 222 234 102 105 66 72 77 155 171 165 280 321 275 185 128 215 258 196 248 241 245 256
262 257 252 247 241 235 227 221 218 220 214 211 175 189 184 206 201 204 208 210 226 226 225 239 254 253 171 175 213 255 352 37 227 197 169 130 307 305 164 208 249 280 240 203 207 248 224
267 263 256 250 243 234 226 222 215 214 214 209 166 180 224 189 201 202 198 203 207 206 239 251 253 262 263 208 147 211 218 247 229 285 165 153 216 33 313 204 215 149 245 255 51 261 253
272 262 257 249 240 230 223 219 212 207 207 201 183 178 171 174 223 212 199 195 196 194 212 229 230 266 172 173 204 184 217 202 263 311 145 148 105 0 276 263 290 222 180 206 218 230 254
270 269 260 252 235 223 216 212 207 204 199 192 185 177 179 150 278 229 223 193 190 199 203 195 196 230 244 146 137 230 136 208 267 208 179 166 172 168 280 194 257 21 314 210 220 262 246
270 278 253 250 217 214 213 205 203 198 194 183 167 166 153 184 283 238 214 244 220 206 197 195 209 216 206 147 168 153 224 178 210 242 175 174 189 172 158 266 283 325 308 303 354 324 287